* Astronomy

Members Login
Post Info TOPIC: Long March CZ-3C rocket body re-entry


L

Posts: 131433
Date:
RE: Long March CZ-3C rocket body re-entry
Permalink  
 


Update:
The Long March CZ-3C rocket body re-entered the Earths atmosphere on the 5th March, 2011 @ 18:45 GMT 1 minute .

Inclination: 17.88
Size: 10.76 metres
Revolution Number: 2912
Predicted Location: 17N, 252E

__________________


L

Posts: 131433
Date:
Permalink  
 


Update:
The Long March CZ-3C rocket body is predicted to re-enter the Earths atmosphere on the 5th March, 2011 @ 22:52 GMT 16 hours.

TLE Data
CZ-3C RB
1 32780U 08019B 11063.85472222 .54770551 -60238-4 14892-2 0 8163
2 32780 017.8719 237.8500 1132201 153.2985 058.2174 13.88886468 28987

Period: 107.53 minutes
Inclination: 17.88
Apogee: 2123 km
Perigee: 102 km
Size: 10.76 metres
Revolution Number: 2914
Predicted Location: 15.4S, 25.7E

__________________


L

Posts: 131433
Date:
Permalink  
 

Update:
The Long March CZ-3C rocket body is predicted to re-enter the Earths atmosphere on the 5th March, 2011 @ 17:17 GMT 22 hours.

TLE Data
CZ-3C RB
1 32780U 08019B 11063.30446759 .47281379 -52920-4 12901-2 0 8131
2 32780 017.8838 241.0587 1348859 147.1114 240.1118 13.39099639 28910

Period: 120.14 minutes
Inclination: 17.89
Apogee: 3265 km
Perigee: 109 km
Size: 10.76 metres
Revolution Number: 2912
Predicted Location: 5.8S, 8.7E

__________________


L

Posts: 131433
Date:
Permalink  
 

Update:
The Long March CZ-3C rocket body is predicted to re-enter the Earths atmosphere on the 5th March, 2011 @ 11:59 GMT 48 hours.

TLE Data
CZ-3C RB
1 32780U 08019B 11061.53948238 .33670643 -36551-4 16330-2 0 8046
2 32780 017.8868 249.9614 1957144 130.6138 107.9322 11.98632347 28680

Period: 131.04 minutes
Inclination: 17.81
Apogee: 4243 km
Perigee: 94 km
Size: 10.76 metres
Revolution Number: 2909
Predicted Location: 5.9S, 90.2E

__________________


L

Posts: 131433
Date:
Permalink  
 

A Long March CZ-3C rocket body that was launched on the maiden flight of the Long March 3C carrier rocket, at 15:35 GMT on 25 April 2008, from LC-2 at the Xichang Satellite Launch Centre for the Tianlian I-01 satellite mission is predicted to re-enter the Earths atmosphere on the 5th March, 2011 @ 17:36 GMT 48 hours.

TLE Data
CZ-3C RB
1 32780U 08019B 11060.85157407 .27716935 -32391-4 16465-2 0 8012
2 32780 017.8815 252.8603 2142848 125.1043 072.8544 11.56672463 28600

Period: 131.04 minutes
Inclination: 17.81
Apogee: 4243 km
Perigee: 94 km
Size: 10.76 metres
Revolution Number: 2911
Predicted Location: 38.8N, 175.9E

__________________
Page 1 of 1  sorted by
 
Quick Reply

Please log in to post quick replies.



Create your own FREE Forum
Report Abuse
Powered by ActiveBoard